Regional Weather Roundup
Issued by NWS Charleston, SC

Current Version | Previous Version | Graphics & Text | Print | Product List | Glossary On
Versions: 1 2 3 4 5 6 7 8 9 10 11 12 13 14 15 16 17 18 19 20 21 22 23 24 25 26 27 28 29 30 31 32 33 34 35 36 37 38 39 40 41 42 43 44 45 46 47 48 49 50
000 ASUS42 KCHS 281628 RWRCHS REGIONAL WEATHER ROUNDUP NATIONAL WEATHER SERVICE CHARLESTON SC 1200 PM EDT THU APR 28 2016 NOTE: "FAIR" INDICATES FEW OR NO CLOUDS BELOW 12,000 FEET WITH NO SIGNIFICANT WEATHER AND/OR OBSTRUCTIONS TO VISIBILITY. NOT ALL STATIONS ARE QUALITY CONTROLLED. USE DATA WITH CAUTION... ESPECIALLY DEWPOINT OBSERVATIONS. SCZ027-030-031-034>040-042>050-281700- ...SOUTHEAST SOUTH CAROLINA... CITY SKY/WX TMP DP RH WIND PRES REMARKS N CHARLESTON MOSUNNY 81 68 64 W5 29.97F WATERFRONT PRK N/A 75 70 84 VRB3 29.96S MOUNT PLEASANT FAIR 81 70 69 SW7 29.98S JOHNS ISLAND FAIR 82 70 65 S10 29.98S PINOPOLIS N/A 79 70 73 CALM 29.91R MONCKS CORNER PTSUNNY 77 63 61 S6 29.97F SUMMERVILLE PTSUNNY 81 70 69 S6 29.98S BEAUFORT MCAS PTSUNNY 82 70 66 SW7 29.98S BEAUFORT ARPT FAIR 81 68 65 SW5 29.98S HILTON HEAD IS NOT AVBL WALTERBORO MOSUNNY 82 70 65 S5 29.97F ALLENDALE FAIR 82 68 61 VRB6G13 29.96S ...SOUTHERN MIDLANDS AND PEE DEE... CITY SKY/WX TMP DP RH WIND PRES REMARKS GEORGETOWN FAIR 79 63 57 W6 29.99S KINGSTREE FAIR 77 64 65 SW5 29.96F ORANGEBURG CLOUDY 79 67 66 SW6 29.96F BARNWELL PTSUNNY 82 72 69 W8 29.97F AIKEN PTSUNNY 77 64 65 SW7 30.00F MANNING NOT AVBL COLUMBIA CLOUDY 79 67 66 SW12 29.95S SUMTER MOSUNNY 78 67 69 SW13 29.93F FLORENCE SUNNY 79 65 62 SW9 29.95F MYRTLE BEACH CLOUDY 73 64 73 NW5 29.99 N MYRTLE BEACH CLOUDY 74 68 81 W5 29.96F $$ GAZ063-065-086>088-099>101-113>116-118-119-134>141-150-281700- ...SOUTHEAST GEORGIA... CITY SKY/WX TMP DP RH WIND PRES REMARKS SAVANNAH ARPT PTSUNNY 84 68 58 SW10 29.98S HUNTER AAF MOSUNNY 83 70 63 W9 29.96R FORT STEWART MOSUNNY 83 67 59 SW10 29.96S STATESBORO PTSUNNY 85 73 65 W7 29.97F HX 91 SYLVANIA PTSUNNY 83 71 67 NW7 29.98S CLAXTON PTSUNNY 81 72 72 SW9 29.99S ...CSRA...CENTRAL AND FAR SOUTHEAST GEORGIA... CITY SKY/WX TMP DP RH WIND PRES REMARKS THOMSON PTSUNNY 81 70 70 W9G16 30.01S AUGUSTA-BUSH PTSUNNY 80 68 66 W8 29.96R AUGUSTA-DANIEL PTSUNNY 80 66 62 SW8 29.97S SWAINSBORO CLOUDY 75 70 83 W6 30.01R VIDALIA PTSUNNY 79 70 73 S7 29.99F EASTMAN CLOUDY 80 70 70 SW5 30.00F HAZLEHURST PTSUNNY 82 71 68 SW3 29.97F ALMA PTSUNNY 80 70 71 S10 29.99F WAYCROSS PTSUNNY 80 70 72 SW9 30.00F JESUP FAIR 86 72 62 W8 29.99F HX 92 BAXLEY CLOUDY 81 72 74 SW7 29.99F BRUNSWICK SUNNY 88 66 48 SW9 30.00S HX 90 SAINT SIMONS SUNNY 81 64 56 SW12 30.00R $$ SCZ027-028-034-036>038-045-046-048>050-GAZ119-141-281700- ...LAKE AND SUPPLEMENTAL COASTAL OBSERVATIONS... STATION/POSITION TIME TEMP WIND PRES WAVE SWELL AIR SEA DIR/SP/G HT/PER HT/PER/DIR (UTC) (F) (DEG/KT/KT) (MB) (FT/S) (FT/S/D) WINYAH BAY 1545 75 280/ 6 1015.0R LAKE MURRAY 1600 74 210/ 6/ 8 1013.9S ACE BASIN NERRS 1500 76 200/ 1 1015.0 FORT PULASKI 1600 80 71 150/ 5/ 9 1015.7R SAPELO ISLAND 1600 81 220/ 6 1016.0R $$ ANZ835-935-AMZ111-154-330-350-352-354-370-450-454-472-281700- ...C-MAN AND BUOY OBSERVATIONS... STATION/POSITION TIME TEMP WIND PRES WAVE SWELL AIR SEA DIR/SP/G HT/PER HT/PER/DIR (UTC) (F) (DEG/KT/KT) (MB) (FT/S) (FT/S/D) BUOY 41004 1550 72 72 220/ 10/ 12 1015.3S 3/ 5 2/ 5 BUOY 41008 NOT AVBL FOLLY BEACH CMAN 1600 73 200/ 8/ 9 1015.5S CAPERS NEARSHORE 1608 71 70 220/ 8/ 12 1015.1R FRIPP NEARSHORE 1608 71 71 200/ 8/ 12 1015.0S STATION/POSITION TIME TEMP WIND PRES WAVE SWELL AIR SEA DIR/SP/G HT/PER HT/PER/DIR (UTC) (F) (DEG/KT/KT) (MB) (FT/S) (FT/S/D) 5E ST. MARYS GA 1521 72 N/A 2/ 4 FRYING PAN BUOY 1600 72 70 230/ 14/ 17 1015.5R BUOY 41025 1550 72 71 220/ 12/ 14 1014.3F 3/ 5 2/100/11 CAPE LOOKOUT NC 1600 73 220/ 9/ 11 1014.4F BUOY 41002 1550 71 71 190/ 6/ 8 1018.2R 2/ 8 2/110/ 8 BUOY 41010 1520 75 76 170/ 6/ 8 1017.3R ST AUGUSTINE FL 1600 80 70 200/ 7/ 8 1017.1R $$

USA.gov is the U.S. government's official web portal to all federal, state and local government web resources and services.